Tracking 23764 objects as of 16-Oct-2021
HD Live streaming from Space Station
objects crossing your sky now

STARLINK-3068

Track STARLINK-3068 now!
10-day predictions
STARLINK-3068 is classified as:


NORAD ID: 49154
Int'l Code: 2021-082AA
Perigee: 364.1 km
Apogee: 369.2 km
Inclination: 70.0 °
Period: 91.7 minutes
Semi major axis: 6737 km
RCS: Unknown
Launch date: September 14, 2021
Source: United States (US)
Launch site: AIR FORCE WESTERN TEST RANGE (AFWTR)
aabbcc
Your satellite tracking list
Your tracking list is empty




NASA's NSSDC Master Catalog

Two Line Element Set (TLE):
1 49154U 21082AA  21289.83335648 -.00055561  00000-0 -46596-3 0  9995
2 49154  70.0016  34.9045 0003808 291.9394 205.0377 15.69786560  6317
Source of the keplerian elements: AFSPC